カタログに戻る

STARLINK-37469

運用中通信VLEO
NORAD 69168·PAYLOAD·🇺🇸 United States

打ち上げ May 21, 2026 から Cape Canaveral Space Force Station

Loading…

次のパス (今後24時間)

TLE

最新Source: CelesTrak SupGP

元期: Sep 15, 2026, 04:31 UTC

1 69168C 26111W   26258.18868056 -.00026442  00000+0 -78113-3 0  2586
2 69168  53.1567  90.4612 0001304  86.0618 321.1188 15.34407503    15

AllMySatでSTARLINK-37469をリアルタイム追跡

Download on the App Store